TimeEDT,TemperatureF,Dew PointF,Humidity,Sea Level PressureIn,VisibilityMPH,Wind Direction,Wind SpeedMPH,Gust SpeedMPH,PrecipitationIn,Events,Conditions,WindDirDegrees,DateUTC
12:56 AM,64.9,54.0,68,29.95,10.0,ENE,4.6,-,N/A,,Clear,70,2014-04-14 04:56:00
1:56 AM,63.0,54.0,72,29.94,10.0,East,5.8,-,N/A,,Clear,90,2014-04-14 05:56:00
2:56 AM,62.1,54.0,75,29.93,10.0,East,6.9,-,N/A,,Clear,90,2014-04-14 06:56:00
3:56 AM,61.0,54.0,78,29.92,10.0,East,5.8,-,N/A,,Clear,80,2014-04-14 07:56:00
4:56 AM,61.0,53.1,75,29.92,10.0,ENE,5.8,-,N/A,,Clear,70,2014-04-14 08:56:00
5:56 AM,62.1,53.1,72,29.92,10.0,ENE,4.6,-,N/A,,Clear,60,2014-04-14 09:56:00
6:56 AM,57.9,52.0,81,29.92,10.0,East,4.6,-,N/A,,Clear,80,2014-04-14 10:56:00
7:56 AM,64.0,54.0,70,29.93,10.0,South,8.1,-,N/A,,Clear,170,2014-04-14 11:56:00
8:56 AM,68.0,54.0,61,29.91,10.0,South,17.3,24.2,N/A,,Clear,190,2014-04-14 12:56:00
9:56 AM,70.0,54.0,57,29.91,10.0,South,12.7,25.3,N/A,,Clear,180,2014-04-14 13:56:00
10:56 AM,72.0,54.0,53,29.92,10.0,SSW,16.1,26.5,N/A,,Partly Cloudy,210,2014-04-14 14:56:00
11:56 AM,73.9,55.0,52,29.90,10.0,South,19.6,28.8,N/A,,Partly Cloudy,180,2014-04-14 15:56:00
12:56 PM,73.0,54.0,51,29.86,10.0,South,23.0,35.7,N/A,,Scattered Clouds,180,2014-04-14 16:56:00
1:56 PM,73.9,53.1,48,29.86,10.0,SSW,24.2,36.8,N/A,,Clear,210,2014-04-14 17:56:00
2:56 PM,75.9,53.1,45,29.84,10.0,SW,17.3,28.8,N/A,,Mostly Cloudy,220,2014-04-14 18:56:00
3:56 PM,75.9,52.0,43,29.81,10.0,SSW,17.3,32.2,N/A,,Scattered Clouds,210,2014-04-14 19:56:00
4:56 PM,75.9,51.1,42,29.80,10.0,SSW,15.0,27.6,N/A,,Partly Cloudy,200,2014-04-14 20:56:00
5:56 PM,75.0,50.0,41,29.78,10.0,South,17.3,28.8,N/A,,Clear,180,2014-04-14 21:56:00
6:56 PM,73.9,50.0,43,29.78,10.0,South,9.2,23.0,N/A,,Clear,180,2014-04-14 22:56:00
7:56 PM,73.0,51.1,46,29.78,10.0,South,12.7,27.6,N/A,,Scattered Clouds,190,2014-04-14 23:56:00
8:56 PM,73.0,51.1,46,29.78,10.0,South,10.4,21.9,N/A,,Mostly Cloudy,190,2014-04-15 00:56:00
9:56 PM,72.0,50.0,46,29.78,10.0,South,12.7,-,N/A,,Overcast,180,2014-04-15 01:56:00
10:56 PM,71.1,50.0,47,29.76,10.0,South,9.2,-,N/A,,Overcast,180,2014-04-15 02:56:00